Regional Weather Roundup
Issued by NWS

Home | Current Version | Previous Version | Text Only | Print | Product List | Glossary On
Versions: 1 2 3 4 5 6 7 8 9 10 11 12 13 14 15 16 17 18 19 20 21 22 23 24 25 26 27 28 29 30 31 32 33 34 35 36 37 38 39 40 41 42 43 44 45 46 47 48 49 50
000
ASPQ40 PGUM 051010
RWRPQ
WEATHER ROUNDUP FOR THE MARIANAS AND MICRONESIA
NATIONAL WEATHER SERVICE TIYAN GU
800 PM CHST SAT SEP 05 2015

GUZ001>004-051100-
MARIANA ISLANDS-

CITY           SKY/WX    TMP DP  RH WIND       PRES   REMARKS
GUAM AIRPORT   PTCLDY    81  77  89 SW3       29.82R
ANDERSEN AFB   PTCLDY    81  75  83 NW7       29.83R
ROTA AIRPORT   PTCLDY    79  77  94 W5        29.82R
TINIAN AP      PTCLDY    81  77  89 SW5       29.79R
SAIPAN AP      CLEAR     81  77  89 SW3       29.80R

$$

PMZ161-051100-
REPUBLIC OF PALAU-

CITY           SKY/WX    TMP DP  RH WIND       PRES   REMARKS
KOROR AP       CLOUDY    82  75  78 SW8       29.82R
KOROR WSO      CLOUDY    84  75  74 W9        29.85R HX  92

$$

PMZ171>174-051100-
FEDERATED STATES OF MICRONESIA-

CITY           SKY/WX    TMP DP  RH WIND       PRES   REMARKS
YAP AIRPORT    CLOUDY    82  77  83 W9        29.82R HX  91
CHUUK AP       PTCLDY    82  79  89 SW7       29.87R HX  93
POHNPEI AP     NOT AVBL
POHNPEI WSO    CLOUDY    81  77  89 W7        29.87R
KOSRAE AP      NOT AVBL

$$

PMZ181-051100-
REPUBLIC OF THE MARSHALL ISLANDS-

CITY           SKY/WX    TMP DP  RH WIND       PRES   REMARKS
KWAJALEIN AP   MOCLDY    81  73  78 W3        29.82R
MAJURO AP      NOT AVBL
MAJURO WSO     MOCLDY    84  77  79 SW13      29.82R HX  94

$$



USA.gov is the U.S. government's official web portal to all federal, state and local government web resources and services.